TimeMDT,TemperatureF,Dew PointF,Humidity,Sea Level PressureIn,VisibilityMPH,Wind Direction,Wind SpeedMPH,Gust SpeedMPH,PrecipitationIn,Events,Conditions,WindDirDegrees,DateUTC
12:53 AM,30.0,8.1,40,30.17,10.0,Calm,Calm,-,N/A,,Mostly Cloudy,0,2013-03-26 06:53:00
1:53 AM,28.0,7.0,41,30.15,10.0,Calm,Calm,-,N/A,,Overcast,0,2013-03-26 07:53:00
2:53 AM,27.0,8.1,45,30.15,10.0,North,3.5,-,N/A,,Scattered Clouds,10,2013-03-26 08:53:00
3:53 AM,23.0,7.0,50,30.16,10.0,NNE,3.5,-,N/A,,Clear,30,2013-03-26 09:53:00
4:53 AM,21.0,7.0,55,30.17,10.0,Calm,Calm,-,N/A,,Clear,0,2013-03-26 10:53:00
5:53 AM,23.0,10.0,58,30.18,10.0,North,4.6,-,N/A,,Clear,10,2013-03-26 11:53:00
6:53 AM,21.0,9.0,60,30.20,10.0,Calm,Calm,-,N/A,,Clear,0,2013-03-26 12:53:00
7:53 AM,25.0,10.0,53,30.20,10.0,North,3.5,-,N/A,,Clear,360,2013-03-26 13:53:00
8:53 AM,32.0,12.0,44,30.19,10.0,Calm,Calm,-,N/A,,Clear,0,2013-03-26 14:53:00
9:53 AM,39.9,10.9,31,30.15,8.0,ENE,3.5,-,N/A,,Clear,60,2013-03-26 15:53:00
10:53 AM,46.0,12.0,25,30.12,10.0,Variable,4.6,-,N/A,,Clear,0,2013-03-26 16:53:00
11:53 AM,48.0,12.0,24,30.10,10.0,Variable,6.9,-,N/A,,Clear,0,2013-03-26 17:53:00
12:53 PM,50.0,12.0,22,30.08,10.0,Calm,Calm,-,N/A,,Clear,0,2013-03-26 18:53:00
1:53 PM,53.1,12.9,20,30.04,10.0,WSW,6.9,-,N/A,,Clear,250,2013-03-26 19:53:00
2:53 PM,54.0,12.0,19,30.01,10.0,SW,6.9,18.4,N/A,,Clear,220,2013-03-26 20:53:00
3:53 PM,55.0,10.9,17,30.01,10.0,WSW,15.0,-,N/A,,Clear,240,2013-03-26 21:53:00
4:53 PM,54.0,10.9,18,30.01,10.0,SW,6.9,-,N/A,,Clear,230,2013-03-26 22:53:00
5:53 PM,54.0,10.0,17,29.99,10.0,West,12.7,-,N/A,,Clear,260,2013-03-26 23:53:00
6:53 PM,52.0,10.0,19,30.00,10.0,West,6.9,-,N/A,,Clear,260,2013-03-27 00:53:00
7:53 PM,50.0,10.0,20,29.99,10.0,Calm,Calm,-,N/A,,Clear,0,2013-03-27 01:53:00
8:53 PM,44.1,12.0,27,30.00,10.0,NNE,10.4,-,N/A,,Clear,20,2013-03-27 02:53:00
9:53 PM,39.0,12.9,34,29.99,10.0,North,5.8,-,N/A,,Clear,10,2013-03-27 03:53:00
10:53 PM,39.0,14.0,36,29.97,10.0,Calm,Calm,-,N/A,,Overcast,0,2013-03-27 04:53:00
11:53 PM,37.9,15.1,39,29.96,10.0,ENE,6.9,-,N/A,,Mostly Cloudy,60,2013-03-27 05:53:00